| time (UTC) | temp C | wind direction | speed KPH | gust KPH | rain 1hr cm | rain 24hr cm | rain mn cm | humidity % | barometer mb |
| 20260905152531 | 16 | 217 | 3.2 | 8.0 | 0.00 | 1.04 | 1.04 | 74 | 1004.6 |
| 20260905152031 | 16 | 264 | 3.2 | 8.0 | 0.00 | 1.04 | 1.04 | 75 | 1004.6 |
| 20260905151550 | 16 | 302 | 3.2 | 8.0 | 0.00 | 1.04 | 1.04 | 74 | 1004.5 |
| 20260905151033 | 17 | 310 | 3.2 | 8.0 | 0.00 | 1.04 | 1.04 | 76 | 1004.4 |
| 20260905150532 | 17 | 278 | 3.2 | 9.7 | 0.00 | 1.04 | 1.04 | 76 | 1004.3 |
| 20260905150055 | 17 | 319 | 1.6 | 9.7 | 0.00 | 1.04 | 1.04 | 77 | 1004.2 |
| 20260905145537 | 16 | 0 | 1.6 | 6.4 | 0.00 | 1.04 | 1.04 | 79 | 1004.1 |
| 20260905145031 | 16 | 302 | 3.2 | 6.4 | 0.00 | 1.04 | 1.04 | 79 | 1004.0 |
| 20260905144555 | 16 | 296 | 3.2 | 8.0 | 0.00 | 1.04 | 1.04 | 79 | 1003.9 |
| 20260905144031 | 16 | 289 | 4.8 | 8.0 | 0.00 | 1.04 | 1.04 | 78 | 1003.8 |
| 20260905143532 | 16 | 311 | 3.2 | 6.4 | 0.00 | 1.04 | 1.04 | 81 | 1003.9 |
| 20260905143052 | 16 | 343 | 3.2 | 9.7 | 0.00 | 1.04 | 1.04 | 84 | 1003.8 |
| 20260905142535 | 15 | 323 | 4.8 | 11.3 | 0.00 | 1.04 | 1.04 | 82 | 1003.8 |
| 20260905142032 | 15 | 326 | 4.8 | 11.3 | 0.00 | 1.04 | 1.04 | 82 | 1003.8 |
| 20260905141548 | 16 | 334 | 4.8 | 8.0 | 0.00 | 1.04 | 1.04 | 84 | 1003.7 |
| 20260905141034 | 16 | 316 | 4.8 | 6.4 | 0.00 | 1.04 | 1.04 | 84 | 1003.5 |
| 20260905140531 | 15 | 23 | 3.2 | 6.4 | 0.00 | 1.04 | 1.04 | 84 | 1003.6 |
| 20260905135531 | 15 | 314 | 0.0 | 4.8 | 0.08 | 1.04 | 1.04 | 87 | 1003.6 |
| 20260905135034 | 14 | 278 | 1.6 | 4.8 | 0.13 | 1.04 | 1.04 | 88 | 1003.5 |
| 20260905134600 | 14 | 334 | 1.6 | 4.8 | 0.18 | 1.04 | 1.04 | 90 | 1003.7 |
| 20260905134033 | 13 | 297 | 1.6 | 4.8 | 0.25 | 1.04 | 1.04 | 91 | 1003.6 |
| 20260905133530 | 13 | 285 | 3.2 | 4.8 | 0.25 | 1.04 | 1.04 | 92 | 1003.5 |
| 20260905133049 | 13 | 306 | 0.0 | 3.2 | 0.25 | 1.04 | 1.04 | 93 | 1003.5 |
| 20260905132531 | 12 | 0 | 0.0 | 0.0 | 0.25 | 1.04 | 1.04 | 93 | 1003.5 |
| 20260905132031 | 12 | 0 | 0.0 | 0.0 | 0.25 | 1.04 | 1.04 | 93 | 1003.5 |
| 20260905131546 | 11 | 0 | 0.0 | 3.2 | 0.23 | 1.02 | 1.02 | 93 | 1003.6 |
| 20260905131033 | 11 | 0 | 0.0 | 4.8 | 0.23 | 1.02 | 1.02 | 92 | 1003.5 |
| 20260905130532 | 11 | 351 | 3.2 | 8.0 | 0.23 | 1.02 | 1.02 | 92 | 1003.6 |
| 20260905130050 | 11 | 345 | 3.2 | 11.3 | 0.20 | 1.02 | 1.02 | 92 | 1003.5 |
| 20260905125531 | 11 | 335 | 4.8 | 12.9 | 0.15 | 0.94 | 0.94 | 91 | 1003.4 |
| 20260905125031 | 11 | 351 | 4.8 | 12.9 | 0.10 | 0.91 | 0.91 | 90 | 1003.3 |
| 20260905124553 | 12 | 314 | 8.0 | 12.9 | 0.05 | 0.84 | 0.84 | 89 | 1003.3 |
| 20260905124034 | 12 | 347 | 6.4 | 12.9 | 0.00 | 0.79 | 0.79 | 88 | 1003.2 |
| 20260905123532 | 13 | 15 | 4.8 | 12.9 | 0.00 | 0.79 | 0.79 | 87 | 1003.2 |
| 20260905123046 | 13 | 274 | 4.8 | 11.3 | 0.00 | 0.79 | 0.79 | 86 | 1003.1 |
| 20260905122531 | 13 | 323 | 1.6 | 4.8 | 0.00 | 0.79 | 0.79 | 86 | 1003.0 |
| 20260905122031 | 13 | 305 | 0.0 | 4.8 | 0.00 | 0.79 | 0.79 | 85 | 1002.9 |
| 20260905121558 | 13 | 285 | 1.6 | 4.8 | 0.00 | 0.79 | 0.79 | 85 | 1002.8 |
| 20260905121031 | 13 | 263 | 1.6 | 4.8 | 0.00 | 0.79 | 0.79 | 86 | 1002.8 |
| 20260905120531 | 14 | 283 | 1.6 | 4.8 | 0.00 | 0.79 | 0.79 | 85 | 1002.7 |
| 20260905120107 | 14 | 0 | 0.0 | 1.6 | 0.00 | 0.79 | 0.79 | 85 | 1002.6 |
| 20260905115532 | 13 | 0 | 0.0 | 3.2 | 0.00 | 0.79 | 0.79 | 85 | 1002.6 |
| 20260905115032 | 14 | 0 | 0.0 | 3.2 | 0.00 | 0.79 | 0.79 | 84 | 1002.5 |
| 20260905114559 | 14 | 218 | 0.0 | 3.2 | 0.00 | 0.79 | 0.79 | 84 | 1002.5 |
| 20260905114031 | 13 | 285 | 1.6 | 3.2 | 0.00 | 0.79 | 0.79 | 83 | 1002.5 |
| 20260905113535 | 14 | 0 | 0.0 | 3.2 | 0.00 | 0.79 | 0.79 | 83 | 1002.4 |
| 20260905113058 | 14 | 0 | 0.0 | 0.0 | 0.00 | 0.79 | 0.79 | 84 | 1002.3 |
| 20260905112531 | 13 | 0 | 0.0 | 1.6 | 0.00 | 0.79 | 0.79 | 84 | 1002.2 |
| 20260905112032 | 14 | 0 | 0.0 | 1.6 | 0.00 | 0.79 | 0.79 | 86 | 1002.1 |
| 20260905111651 | 13 | 113 | 0.0 | 3.2 | 0.00 | 0.79 | 0.79 | 86 | 1002.1 |
| 20260905111031 | 13 | 0 | 0.0 | 3.2 | 0.00 | 0.79 | 0.79 | 87 | 1002.0 |
| 20260905110530 | 13 | 0 | 0.0 | 6.4 | 0.00 | 0.79 | 0.79 | 87 | 1002.0 |
| 20260905110055 | 13 | 0 | 1.6 | 6.4 | 0.00 | 0.79 | 0.79 | 88 | 1001.9 |
| 20260905105532 | 13 | 147 | 0.0 | 6.4 | 0.00 | 0.79 | 0.79 | 88 | 1001.9 |
| 20260905105030 | 13 | 127 | 0.0 | 8.0 | 0.00 | 0.79 | 0.79 | 87 | 1001.9 |
| 20260905104555 | 13 | 118 | 0.0 | 8.0 | 0.00 | 0.79 | 0.79 | 88 | 1001.8 |
| 20260905104032 | 13 | 0 | 1.6 | 6.4 | 0.00 | 0.79 | 0.79 | 89 | 1001.7 |
| 20260905103533 | 14 | 89 | 0.0 | 6.4 | 0.00 | 0.79 | 0.79 | 90 | 1001.6 |
| 20260905103102 | 14 | 212 | 1.6 | 4.8 | 0.00 | 0.79 | 0.79 | 92 | 1001.6 |
| 20260905102530 | 13 | 0 | 0.0 | 4.8 | 0.00 | 0.79 | 0.79 | 93 | 1001.5 |
| 20260905102031 | 13 | 127 | 1.6 | 4.8 | 0.00 | 0.79 | 0.79 | 92 | 1001.5 |
| 20260905101552 | 13 | 165 | 1.6 | 4.8 | 0.00 | 0.79 | 0.79 | 94 | 1001.5 |
| 20260905101031 | 12 | 144 | 1.6 | 4.8 | 0.00 | 0.79 | 0.79 | 94 | 1001.4 |
| 20260905100531 | 12 | 115 | 0.0 | 4.8 | 0.00 | 0.79 | 0.79 | 94 | 1001.4 |
| 20260905100059 | 12 | 0 | 0.0 | 4.8 | 0.00 | 0.79 | 0.79 | 94 | 1001.4 |
| 20260905095530 | 12 | 110 | 1.6 | 4.8 | 0.03 | 0.79 | 0.79 | 94 | 1001.4 |
| 20260905095033 | 12 | 107 | 0.0 | 4.8 | 0.03 | 0.79 | 0.79 | 94 | 1001.3 |
| 20260905094554 | 12 | 98 | 1.6 | 4.8 | 0.03 | 0.79 | 0.79 | 94 | 1001.5 |
| 20260905094032 | 12 | 110 | 0.0 | 1.6 | 0.05 | 0.79 | 0.79 | 95 | 1001.4 |
| 20260905093530 | 12 | 0 | 0.0 | 1.6 | 0.05 | 0.79 | 0.79 | 95 | 1001.3 |
| 20260905093106 | 11 | 0 | 0.0 | 1.6 | 0.05 | 0.79 | 0.79 | 95 | 1001.4 |
| 20260905092533 | 11 | 0 | 0.0 | 3.2 | 0.05 | 0.79 | 0.79 | 95 | 1001.3 |
| 20260905092031 | 11 | 0 | 0.0 | 3.2 | 0.08 | 0.79 | 0.79 | 95 | 1001.3 |
| 20260905091551 | 11 | 0 | 0.0 | 0.0 | 0.10 | 0.79 | 0.79 | 96 | 1001.2 |
| 20260905091030 | 11 | 0 | 0.0 | 0.0 | 0.10 | 0.76 | 0.76 | 96 | 1001.2 |
| 20260905090535 | 11 | 0 | 0.0 | 0.0 | 0.13 | 0.76 | 0.76 | 96 | 1001.1 |
| 20260905090054 | 11 | 0 | 0.0 | 0.0 | 0.18 | 0.76 | 0.76 | 96 | 1001.1 |
| 20260905085531 | 11 | 0 | 0.0 | 0.0 | 0.18 | 0.74 | 0.74 | 96 | 1001.0 |
| 20260905085034 | 11 | 0 | 0.0 | 0.0 | 0.18 | 0.74 | 0.74 | 96 | 1000.9 |
| 20260905084557 | 11 | 0 | 0.0 | 0.0 | 0.18 | 0.74 | 0.74 | 96 | 1000.9 |
| 20260905084031 | 11 | 0 | 0.0 | 0.0 | 0.18 | 0.74 | 0.74 | 96 | 1001.0 |
| 20260905083534 | 11 | 0 | 0.0 | 1.6 | 0.25 | 0.74 | 0.74 | 96 | 1000.8 |
| 20260905083048 | 11 | 0 | 0.0 | 1.6 | 0.28 | 0.74 | 0.74 | 96 | 1000.8 |
| 20260905082531 | 10 | 0 | 0.0 | 0.0 | 0.28 | 0.74 | 0.74 | 96 | 1000.8 |
| 20260905082031 | 10 | 0 | 0.0 | 1.6 | 0.25 | 0.71 | 0.71 | 96 | 1000.8 |
| 20260905081547 | 10 | 0 | 0.0 | 1.6 | 0.23 | 0.66 | 0.66 | 96 | 1000.9 |
| 20260905081033 | 10 | 0 | 0.0 | 1.6 | 0.20 | 0.64 | 0.64 | 96 | 1000.8 |
| 20260905080530 | 10 | 0 | 0.0 | 0.0 | 0.18 | 0.61 | 0.61 | 96 | 1000.8 |
| 20260905080045 | 10 | 0 | 0.0 | 0.0 | 0.18 | 0.58 | 0.58 | 96 | 1000.8 |
| 20260905075533 | 10 | 0 | 0.0 | 0.0 | 0.18 | 0.56 | 0.56 | 96 | 1000.6 |
| 20260905075033 | 10 | 0 | 0.0 | 0.0 | 0.18 | 0.56 | 0.56 | 96 | 1000.7 |
| 20260905074553 | 10 | 0 | 0.0 | 0.0 | 0.18 | 0.56 | 0.56 | 96 | 1000.6 |
| 20260905074030 | 10 | 0 | 0.0 | 3.2 | 0.13 | 0.51 | 0.51 | 96 | 1000.5 |
| 20260905073531 | 10 | 0 | 0.0 | 3.2 | 0.10 | 0.46 | 0.46 | 96 | 1000.5 |
| 20260905073048 | 10 | 311 | 0.0 | 3.2 | 0.10 | 0.46 | 0.46 | 96 | 1000.5 |
| 20260905072531 | 10 | 0 | 0.0 | 0.0 | 0.18 | 0.46 | 0.46 | 96 | 1000.5 |
| 20260905072030 | 10 | 0 | 0.0 | 0.0 | 0.18 | 0.43 | 0.43 | 96 | 1000.4 |
| 20260905071549 | 10 | 0 | 0.0 | 0.0 | 0.18 | 0.43 | 0.43 | 96 | 1000.4 |
| 20260905071030 | 10 | 0 | 0.0 | 0.0 | 0.18 | 0.43 | 0.43 | 96 | 1000.2 |
| 20260905070534 | 9 | 0 | 0.0 | 0.0 | 0.15 | 0.41 | 0.41 | 96 | 1000.1 |
| 20260905070053 | 9 | 0 | 0.0 | 0.0 | 0.18 | 0.41 | 0.41 | 96 | 1000.2 |
| 20260905065532 | 9 | 0 | 0.0 | 0.0 | 0.18 | 0.38 | 0.38 | 96 | 1000.2 |
| 20260905065031 | 9 | 0 | 0.0 | 0.0 | 0.18 | 0.36 | 0.36 | 96 | 1000.2 |
| 20260905064558 | 9 | 0 | 0.0 | 0.0 | 0.18 | 0.36 | 0.36 | 96 | 1000.1 |
| 20260905064031 | 9 | 0 | 0.0 | 1.6 | 0.18 | 0.36 | 0.36 | 96 | 999.9 |
| 20260905063532 | 9 | 0 | 0.0 | 4.8 | 0.18 | 0.36 | 0.36 | 96 | 999.8 |
| 20260905063048 | 9 | 92 | 1.6 | 4.8 | 0.18 | 0.30 | 0.30 | 96 | 999.9 |
| 20260905062532 | 9 | 134 | 0.0 | 3.2 | 0.18 | 0.28 | 0.28 | 95 | 999.9 |
| 20260905062032 | 8 | 0 | 0.0 | 3.2 | 0.18 | 0.25 | 0.25 | 96 | 1000.0 |
| 20260905061547 | 8 | 0 | 0.0 | 1.6 | 0.18 | 0.25 | 0.25 | 96 | 1000.0 |
| 20260905061033 | 8 | 0 | 0.0 | 1.6 | 0.18 | 0.25 | 0.25 | 96 | 999.7 |
| 20260905060532 | 8 | 0 | 0.0 | 1.6 | 0.18 | 0.25 | 0.25 | 96 | 999.8 |
| 20260905060056 | 8 | 0 | 0.0 | 1.6 | 0.18 | 0.23 | 0.23 | 96 | 999.8 |
| 20260905055533 | 8 | 0 | 0.0 | 1.6 | 0.18 | 0.20 | 0.20 | 96 | 999.7 |
| 20260905055032 | 8 | 285 | 0.0 | 3.2 | 0.15 | 0.18 | 0.18 | 96 | 999.6 |
| 20260905054553 | 8 | 0 | 0.0 | 3.2 | 0.15 | 0.18 | 0.18 | 96 | 999.5 |
| 20260905054037 | 8 | 250 | 1.6 | 3.2 | 0.15 | 0.18 | 0.18 | 96 | 999.5 |
| 20260905053533 | 8 | 0 | 0.0 | 3.2 | 0.10 | 0.15 | 0.15 | 96 | 999.3 |
| 20260905053048 | 8 | 0 | 1.6 | 3.2 | 0.08 | 0.10 | 0.10 | 95 | 999.4 |
| 20260905052532 | 8 | 0 | 0.0 | 6.4 | 0.05 | 0.08 | 0.08 | 95 | 999.5 |
| 20260905052033 | 8 | 252 | 3.2 | 6.4 | 0.03 | 0.05 | 0.05 | 95 | 999.5 |
| 20260905051548 | 8 | 266 | 0.0 | 4.8 | 0.05 | 0.05 | 0.05 | 96 | 999.4 |
| 20260905051036 | 8 | 0 | 0.0 | 6.4 | 0.05 | 0.05 | 0.05 | 96 | 999.3 |
| 20260905050532 | 8 | 0 | 0.0 | 8.0 | 0.05 | 0.05 | 0.05 | 96 | 999.3 |
| 20260905050058 | 8 | 14 | 4.8 | 8.0 | 0.03 | 0.03 | 0.03 | 95 | 999.3 |
| 20260905045533 | 8 | 340 | 3.2 | 6.4 | 0.03 | 0.03 | 0.03 | 95 | 999.3 |
| 20260905045032 | 8 | 329 | 3.2 | 4.8 | 0.03 | 0.03 | 0.03 | 95 | 999.4 |
| 20260905044550 | 8 | 335 | 0.0 | 3.2 | 0.03 | 0.03 | 0.03 | 95 | 999.3 |
| 20260905044034 | 8 | 0 | 0.0 | 0.0 | 0.03 | 0.03 | 0.03 | 95 | 999.2 |
| 20260905043533 | 8 | 0 | 0.0 | 3.2 | 0.03 | 0.03 | 0.03 | 95 | 999.3 |
| 20260905043049 | 8 | 0 | 0.0 | 3.2 | 0.03 | 0.03 | 0.03 | 95 | 999.3 |
| 20260905042532 | 8 | 0 | 0.0 | 0.0 | 0.03 | 0.03 | 0.03 | 95 | 999.2 |
| 20260905042032 | 8 | 0 | 0.0 | 0.0 | 0.00 | 0.00 | 0.00 | 95 | 999.1 |
| 20260905041549 | 8 | 0 | 0.0 | 0.0 | 0.00 | 0.00 | 0.00 | 95 | 999.1 |
| 20260905041032 | 8 | 0 | 0.0 | 0.0 | 0.00 | 0.00 | 0.00 | 95 | 999.1 |
| 20260905040532 | 8 | 0 | 0.0 | 0.0 | 0.00 | 0.00 | 0.00 | 95 | 999.1 |
| 20260905040048 | 8 | 0 | 0.0 | 0.0 | 0.00 | 0.00 | 0.00 | 95 | 999.1 |
| 20260905035533 | 8 | 0 | 0.0 | 0.0 | 0.00 | 0.00 | 0.00 | 95 | 999.1 |
| 20260905035032 | 8 | 0 | 0.0 | 0.0 | 0.00 | 0.00 | 0.00 | 95 | 999.0 |
| 20260905034550 | 8 | 0 | 0.0 | 0.0 | 0.00 | 0.00 | 0.00 | 95 | 999.2 |
| 20260905034034 | 8 | 0 | 0.0 | 0.0 | 0.00 | 0.00 | 0.00 | 95 | 999.2 |
| 20260905033533 | 8 | 0 | 0.0 | 0.0 | 0.00 | 0.00 | 0.00 | 95 | 999.2 |
| 20260905033058 | 8 | 0 | 0.0 | 0.0 | 0.00 | 0.00 | 0.00 | 95 | 999.1 |
| 20260905032533 | 8 | 0 | 0.0 | 0.0 | 0.00 | 0.00 | 0.00 | 95 | 999.1 |
| 20260905032032 | 8 | 0 | 0.0 | 0.0 | 0.00 | 0.00 | 0.00 | 95 | 999.0 |
| 20260905031556 | 8 | 0 | 0.0 | 0.0 | 0.00 | 0.00 | 0.00 | 95 | 999.0 |
| 20260905031034 | 8 | 0 | 0.0 | 0.0 | 0.00 | 0.00 | 0.00 | 95 | 999.1 |
| 20260905030534 | 8 | 0 | 0.0 | 0.0 | 0.00 | 0.00 | 0.00 | 95 | 999.1 |
| 20260905030119 | 8 | 0 | 0.0 | 0.0 | 0.00 | 0.00 | 0.00 | 95 | 999.1 |
| 20260905025534 | 8 | 0 | 0.0 | 0.0 | 0.00 | 0.05 | 0.00 | 95 | 999.1 |
| 20260905025034 | 8 | 0 | 0.0 | 0.0 | 0.00 | 0.05 | 0.00 | 95 | 999.0 |
| 20260905024604 | 8 | 0 | 0.0 | 0.0 | 0.00 | 0.05 | 0.00 | 95 | 999.0 |
| 20260905024035 | 8 | 0 | 0.0 | 0.0 | 0.00 | 0.05 | 0.00 | 95 | 999.0 |
| 20260905023535 | 8 | 0 | 0.0 | 0.0 | 0.00 | 0.05 | 0.00 | 95 | 998.9 |
| 20260905023047 | 8 | 0 | 0.0 | 0.0 | 0.00 | 0.05 | 0.00 | 95 | 998.8 |
| 20260905022534 | 7 | 0 | 0.0 | 0.0 | 0.00 | 0.05 | 0.00 | 95 | 998.9 |
| 20260905022034 | 7 | 0 | 0.0 | 0.0 | 0.00 | 0.05 | 0.00 | 95 | 998.8 |
| 20260905021556 | 7 | 0 | 0.0 | 1.6 | 0.00 | 0.05 | 0.00 | 95 | 998.8 |
| 20260905021034 | 7 | 0 | 0.0 | 1.6 | 0.00 | 0.05 | 0.00 | 95 | 998.8 |
| 20260905020536 | 7 | 0 | 0.0 | 1.6 | 0.00 | 0.05 | 0.00 | 95 | 998.7 |
| 20260905020051 | 7 | 0 | 0.0 | 3.2 | 0.00 | 0.05 | 0.00 | 95 | 998.8 |
| 20260905015535 | 7 | 0 | 0.0 | 3.2 | 0.00 | 0.15 | 0.00 | 95 | 998.7 |
| 20260905015038 | 7 | 108 | 1.6 | 3.2 | 0.00 | 0.15 | 0.00 | 95 | 998.6 |
| 20260905014600 | 7 | 48 | 0.0 | 1.6 | 0.00 | 0.15 | 0.00 | 95 | 998.8 |
| 20260905014035 | 7 | 14 | 0.0 | 1.6 | 0.00 | 0.15 | 0.00 | 95 | 998.7 |
| 20260905013535 | 7 | 0 | 0.0 | 0.0 | 0.00 | 0.15 | 0.00 | 95 | 998.6 |
| 20260905013047 | 7 | 0 | 0.0 | 0.0 | 0.00 | 0.15 | 0.00 | 95 | 998.7 |
| 20260905012538 | 7 | 0 | 0.0 | 0.0 | 0.00 | 0.15 | 0.00 | 95 | 998.6 |
| 20260905012035 | 7 | 0 | 0.0 | 0.0 | 0.00 | 0.15 | 0.00 | 95 | 998.7 |
| 20260905011556 | 7 | 0 | 0.0 | 0.0 | 0.00 | 0.15 | 0.00 | 95 | 998.6 |
| 20260905011035 | 8 | 0 | 0.0 | 0.0 | 0.00 | 0.15 | 0.00 | 95 | 998.6 |
| 20260905010538 | 7 | 0 | 0.0 | 0.0 | 0.00 | 0.15 | 0.00 | 95 | 998.5 |
| 20260905010050 | 7 | 0 | 0.0 | 1.6 | 0.00 | 0.15 | 0.00 | 95 | 998.6 |
| 20260905005535 | 7 | 0 | 0.0 | 1.6 | 0.00 | 0.20 | 0.00 | 95 | 998.5 |
| 20260905005034 | 7 | 0 | 0.0 | 3.2 | 0.00 | 0.20 | 0.00 | 95 | 998.5 |
| 20260905004550 | 8 | 0 | 0.0 | 3.2 | 0.00 | 0.20 | 0.00 | 95 | 998.5 |
| 20260905004034 | 8 | 353 | 0.0 | 0.0 | 0.00 | 0.20 | 0.00 | 95 | 998.4 |
| 20260905003535 | 7 | 0 | 0.0 | 0.0 | 0.00 | 0.20 | 0.00 | 95 | 998.4 |
| 20260905003044 | 7 | 0 | 0.0 | 1.6 | 0.00 | 0.20 | 0.00 | 95 | 998.6 |
| 20260905002534 | 7 | 0 | 0.0 | 3.2 | 0.00 | 0.20 | 0.00 | 94 | 998.5 |
| 20260905002035 | 7 | 289 | 0.0 | 3.2 | 0.00 | 0.20 | 0.00 | 95 | 998.4 |
| 20260905001552 | 8 | 300 | 0.0 | 3.2 | 0.00 | 0.20 | 0.00 | 95 | 998.3 |
| 20260905001035 | 8 | 0 | 0.0 | 0.0 | 0.00 | 0.20 | 0.00 | 95 | 998.3 |
| 20260905000538 | 7 | 0 | 0.0 | 0.0 | 0.00 | 0.20 | 0.00 | 95 | 998.5 |
| 20260905000105 | 8 | 0 | 0.0 | 0.0 | 0.00 | 0.20 | 0.00 | 95 | 998.4 |
| 20260904235531 | 8 | 0 | 0.0 | 1.6 | 0.00 | 0.20 | 0.00 | 95 | 998.3 |
| 20260904235032 | 7 | 0 | 0.0 | 1.6 | 0.00 | 0.20 | 0.00 | 94 | 998.4 |
| 20260904234606 | 7 | 110 | 0.0 | 1.6 | 0.00 | 0.20 | 0.00 | 94 | 998.3 |
| 20260904234031 | 7 | 0 | 0.0 | 0.0 | 0.00 | 0.20 | 0.00 | 94 | 998.2 |
| 20260904233534 | 7 | 0 | 0.0 | 0.0 | 0.00 | 0.20 | 0.00 | 94 | 998.2 |
| 20260904233056 | 7 | 0 | 0.0 | 1.6 | 0.00 | 0.20 | 0.00 | 94 | 998.2 |
| 20260904232536 | 8 | 0 | 0.0 | 4.8 | 0.00 | 0.20 | 0.00 | 94 | 998.1 |
| 20260904232035 | 8 | 356 | 1.6 | 4.8 | 0.00 | 0.20 | 0.00 | 94 | 998.2 |
| 20260904231553 | 8 | 352 | 1.6 | 3.2 | 0.00 | 0.20 | 0.00 | 94 | 998.1 |
| 20260904231035 | 8 | 355 | 0.0 | 3.2 | 0.00 | 0.20 | 0.00 | 94 | 998.2 |
| 20260904230535 | 8 | 352 | 0.0 | 3.2 | 0.00 | 0.20 | 0.00 | 94 | 998.2 |
| 20260904230048 | 8 | 0 | 0.0 | 0.0 | 0.00 | 0.20 | 0.00 | 94 | 998.3 |
| 20260904225531 | 8 | 0 | 0.0 | 0.0 | 0.00 | 0.20 | 0.00 | 94 | 998.3 |
| 20260904225034 | 8 | 0 | 0.0 | 0.0 | 0.00 | 0.20 | 0.00 | 94 | 998.3 |
| 20260904224546 | 8 | 0 | 0.0 | 0.0 | 0.00 | 0.20 | 0.00 | 93 | 998.3 |
| 20260904224035 | 8 | 0 | 0.0 | 0.0 | 0.00 | 0.20 | 0.00 | 93 | 998.2 |
| 20260904223536 | 8 | 0 | 0.0 | 0.0 | 0.00 | 0.20 | 0.00 | 93 | 998.2 |
| 20260904223056 | 8 | 0 | 0.0 | 0.0 | 0.00 | 0.20 | 0.00 | 93 | 998.1 |
| 20260904222533 | 8 | 0 | 0.0 | 0.0 | 0.00 | 0.20 | 0.00 | 93 | 998.2 |
| 20260904222032 | 8 | 0 | 0.0 | 0.0 | 0.00 | 0.20 | 0.00 | 93 | 998.3 |
| 20260904221600 | 8 | 0 | 0.0 | 0.0 | 0.00 | 0.20 | 0.00 | 93 | 998.2 |
| 20260904221033 | 8 | 0 | 0.0 | 0.0 | 0.00 | 0.20 | 0.00 | 93 | 998.3 |
| 20260904220532 | 8 | 0 | 0.0 | 0.0 | 0.00 | 0.20 | 0.00 | 93 | 998.3 |
| 20260904220111 | 8 | 0 | 0.0 | 0.0 | 0.00 | 0.20 | 0.00 | 92 | 998.2 |
| 20260904215532 | 8 | 0 | 0.0 | 0.0 | 0.00 | 0.20 | 0.20 | 92 | 998.2 |
| 20260904215031 | 8 | 0 | 0.0 | 0.0 | 0.00 | 0.20 | 0.20 | 92 | 998.1 |
| 20260904214553 | 8 | 0 | 0.0 | 0.0 | 0.00 | 0.20 | 0.20 | 92 | 998.1 |
| 20260904214032 | 8 | 0 | 0.0 | 0.0 | 0.00 | 0.20 | 0.20 | 92 | 998.0 |
| 20260904213532 | 9 | 0 | 0.0 | 0.0 | 0.00 | 0.20 | 0.20 | 92 | 998.1 |
| 20260904213054 | 9 | 0 | 0.0 | 0.0 | 0.00 | 0.20 | 0.20 | 92 | 998.0 |
| 20260904212532 | 9 | 0 | 0.0 | 0.0 | 0.00 | 0.20 | 0.20 | 92 | 998.0 |
| 20260904212032 | 9 | 0 | 0.0 | 0.0 | 0.00 | 0.20 | 0.20 | 91 | 998.1 |
| 20260904211555 | 9 | 0 | 0.0 | 0.0 | 0.00 | 0.20 | 0.20 | 91 | 998.1 |
| 20260904211032 | 9 | 0 | 0.0 | 0.0 | 0.00 | 0.20 | 0.20 | 91 | 998.0 |
| 20260904210532 | 9 | 0 | 0.0 | 0.0 | 0.00 | 0.20 | 0.20 | 91 | 997.8 |
| 20260904210100 | 9 | 0 | 0.0 | 0.0 | 0.00 | 0.20 | 0.20 | 90 | 997.9 |
| 20260904205533 | 10 | 0 | 0.0 | 0.0 | 0.00 | 0.20 | 0.20 | 90 | 997.9 |
| 20260904205034 | 10 | 0 | 0.0 | 3.2 | 0.00 | 0.20 | 0.20 | 90 | 997.9 |
| 20260904204555 | 10 | 0 | 0.0 | 3.2 | 0.00 | 0.20 | 0.20 | 90 | 998.0 |
| 20260904204032 | 10 | 342 | 1.6 | 4.8 | 0.00 | 0.20 | 0.20 | 89 | 997.9 |
| 20260904203532 | 10 | 349 | 1.6 | 4.8 | 0.00 | 0.20 | 0.20 | 90 | 998.0 |
| 20260904203048 | 10 | 352 | 4.8 | 6.4 | 0.00 | 0.20 | 0.20 | 90 | 997.9 |
| 20260904202535 | 10 | 340 | 4.8 | 6.4 | 0.00 | 0.20 | 0.20 | 90 | 997.9 |
| 20260904202035 | 10 | 335 | 4.8 | 6.4 | 0.00 | 0.20 | 0.20 | 90 | 998.0 |
| 20260904201556 | 10 | 21 | 0.0 | 3.2 | 0.00 | 0.20 | 0.20 | 90 | 998.0 |
| 20260904201031 | 10 | 0 | 0.0 | 0.0 | 0.00 | 0.20 | 0.20 | 90 | 998.1 |
| 20260904200533 | 10 | 0 | 0.0 | 0.0 | 0.00 | 0.20 | 0.20 | 90 | 997.9 |
| 20260904200121 | 10 | 0 | 0.0 | 0.0 | 0.00 | 0.20 | 0.20 | 89 | 998.0 |
| 20260904195535 | 10 | 0 | 0.0 | 0.0 | 0.00 | 0.20 | 0.20 | 89 | 998.0 |
| 20260904195035 | 10 | 0 | 0.0 | 0.0 | 0.00 | 0.20 | 0.20 | 88 | 997.9 |
| 20260904194631 | 10 | 0 | 0.0 | 0.0 | 0.00 | 0.20 | 0.20 | 88 | 998.0 |
| 20260904194032 | 10 | 0 | 0.0 | 0.0 | 0.00 | 0.20 | 0.20 | 87 | 998.0 |
| 20260904193532 | 10 | 0 | 0.0 | 3.2 | 0.00 | 0.20 | 0.20 | 87 | 998.0 |
| 20260904193047 | 10 | 0 | 0.0 | 3.2 | 0.00 | 0.20 | 0.20 | 87 | 997.9 |
| 20260904192531 | 11 | 325 | 1.6 | 3.2 | 0.00 | 0.20 | 0.20 | 86 | 998.0 |
| 20260904192034 | 11 | 0 | 0.0 | 3.2 | 0.00 | 0.20 | 0.20 | 86 | 997.9 |
| 20260904191610 | 11 | 7 | 1.6 | 4.8 | 0.00 | 0.20 | 0.20 | 85 | 998.0 |
| 20260904191032 | 11 | 0 | 1.6 | 4.8 | 0.00 | 0.20 | 0.20 | 85 | 998.1 |
| 20260904190532 | 11 | 0 | 0.0 | 0.0 | 0.00 | 0.20 | 0.20 | 85 | 998.1 |
| 20260904190057 | 11 | 0 | 0.0 | 0.0 | 0.00 | 0.20 | 0.20 | 84 | 998.1 |
| 20260904185532 | 11 | 0 | 0.0 | 0.0 | 0.00 | 0.20 | 0.20 | 83 | 998.0 |
| 20260904185032 | 11 | 0 | 0.0 | 0.0 | 0.00 | 0.20 | 0.20 | 82 | 998.0 |
| 20260904184554 | 12 | 0 | 0.0 | 0.0 | 0.00 | 0.20 | 0.20 | 82 | 998.0 |
| 20260904184034 | 12 | 0 | 0.0 | 0.0 | 0.00 | 0.20 | 0.20 | 81 | 997.9 |
| 20260904183535 | 12 | 0 | 0.0 | 0.0 | 0.00 | 0.20 | 0.20 | 81 | 997.9 |
| 20260904183055 | 12 | 0 | 0.0 | 0.0 | 0.00 | 0.20 | 0.20 | 80 | 997.9 |
| 20260904182536 | 12 | 0 | 0.0 | 0.0 | 0.00 | 0.20 | 0.20 | 79 | 997.9 |
| 20260904182034 | 12 | 0 | 0.0 | 0.0 | 0.00 | 0.20 | 0.20 | 80 | 997.8 |
| 20260904181555 | 12 | 0 | 0.0 | 0.0 | 0.00 | 0.20 | 0.20 | 80 | 997.9 |
| 20260904181128 | 12 | 0 | 0.0 | 0.0 | 0.00 | 0.20 | 0.20 | 81 | 997.9 |
| 20260904180532 | 11 | 0 | 0.0 | 0.0 | 0.00 | 0.20 | 0.20 | 82 | 997.7 |
| 20260904180052 | 11 | 0 | 0.0 | 0.0 | 0.00 | 0.20 | 0.20 | 83 | 997.9 |
| 20260904175531 | 12 | 0 | 0.0 | 0.0 | 0.00 | 0.20 | 0.20 | 82 | 997.9 |
| 20260904175033 | 12 | 0 | 0.0 | 0.0 | 0.00 | 0.20 | 0.20 | 81 | 997.9 |
| 20260904174547 | 12 | 0 | 0.0 | 0.0 | 0.00 | 0.20 | 0.20 | 81 | 997.9 |
| 20260904174032 | 12 | 0 | 0.0 | 0.0 | 0.00 | 0.20 | 0.20 | 81 | 997.9 |
| 20260904173534 | 12 | 0 | 0.0 | 0.0 | 0.00 | 0.20 | 0.20 | 82 | 997.9 |
| 20260904173103 | 12 | 0 | 0.0 | 0.0 | 0.00 | 0.20 | 0.20 | 81 | 997.9 |
| 20260904172531 | 12 | 0 | 0.0 | 0.0 | 0.00 | 0.20 | 0.20 | 80 | 997.9 |
| 20260904172034 | 13 | 0 | 0.0 | 0.0 | 0.00 | 0.20 | 0.20 | 81 | 997.8 |
| 20260904171558 | 13 | 0 | 0.0 | 0.0 | 0.00 | 0.20 | 0.20 | 81 | 997.8 |
| 20260904171032 | 13 | 0 | 0.0 | 0.0 | 0.00 | 0.20 | 0.20 | 80 | 997.7 |
| 20260904170534 | 13 | 0 | 0.0 | 0.0 | 0.00 | 0.20 | 0.20 | 80 | 997.7 |
| 20260904170047 | 13 | 0 | 0.0 | 0.0 | 0.00 | 0.20 | 0.20 | 80 | 997.7 |
| 20260904165532 | 13 | 0 | 0.0 | 0.0 | 0.00 | 0.20 | 0.20 | 79 | 997.7 |
| 20260904165032 | 13 | 0 | 0.0 | 0.0 | 0.00 | 0.20 | 0.20 | 79 | 997.6 |
| 20260904164559 | 14 | 0 | 0.0 | 0.0 | 0.00 | 0.20 | 0.20 | 78 | 997.6 |
| 20260904164037 | 14 | 0 | 0.0 | 0.0 | 0.00 | 0.20 | 0.20 | 77 | 997.7 |
| 20260904163531 | 14 | 0 | 0.0 | 0.0 | 0.00 | 0.20 | 0.20 | 75 | 997.7 |
| 20260904163051 | 14 | 126 | 0.0 | 0.0 | 0.00 | 0.20 | 0.20 | 75 | 997.7 |
| 20260904162534 | 14 | 0 | 0.0 | 0.0 | 0.00 | 0.20 | 0.20 | 74 | 997.8 |
| 20260904162034 | 14 | 0 | 0.0 | 0.0 | 0.00 | 0.20 | 0.20 | 74 | 997.8 |
| 20260904161548 | 14 | 0 | 0.0 | 0.0 | 0.00 | 0.20 | 0.20 | 73 | 997.7 |
| 20260904161032 | 14 | 0 | 0.0 | 0.0 | 0.00 | 0.20 | 0.20 | 72 | 997.7 |
| 20260904160532 | 15 | 0 | 0.0 | 1.6 | 0.00 | 0.20 | 0.20 | 71 | 997.7 |
| 20260904160047 | 15 | 0 | 0.0 | 1.6 | 0.00 | 0.20 | 0.20 | 72 | 997.7 |
| 20260904155533 | 15 | 0 | 0.0 | 1.6 | 0.00 | 0.20 | 0.20 | 72 | 997.8 |
| 20260904155031 | 15 | 0 | 0.0 | 4.8 | 0.00 | 0.20 | 0.20 | 73 | 997.7 |
| 20260904154545 | 15 | 0 | 0.0 | 4.8 | 0.00 | 0.20 | 0.20 | 72 | 997.7 |
| 20260904154031 | 15 | 120 | 1.6 | 4.8 | 0.00 | 0.20 | 0.20 | 71 | 997.7 |
| 20260904153531 | 16 | 0 | 0.0 | 4.8 | 0.00 | 0.20 | 0.20 | 71 | 997.7 |
| 20260904153053 | 16 | 91 | 1.6 | 4.8 | 0.00 | 0.20 | 0.20 | 71 | 997.8 |